COSMOS 2425 (GLONASS) 1 29670U 06062A 24340.42896644 .00000065 00000-0 00000-0 0 9995 2 29670 64.6903 212.8933 0021767 357.7662 184.6778 2.13117746139670 COSMOS 2426 (GLONASS) 1 29671U 06062B 24347.61314630 .00000094 00000-0 00000-0 0 9996 2 29671 64.6978 212.8763 0021363 178.0496 359.0062 2.12963251139803 COSMOS 2433 (GLONASS) 1 32275U 07052A 24347.06787509 -.00000046 00000-0 00000-0 0 9996 2 32275 65.8641 334.4521 0005579 258.1470 101.8032 2.13103897133293 COSMOS 2432 (GLONASS) 1 32276U 07052B 24347.13554337 -.00000047 00000-0 00000-0 0 9997 2 32276 65.8792 334.5670 0011693 313.1468 44.3722 2.13103049133319 COSMOS 2434 (GLONASS) 1 32393U 07065A 24347.36389102 .00000097 00000-0 00000-0 0 9996 2 32393 64.3153 210.5439 0004499 71.6622 47.3441 2.13101260132014 COSMOS 2436 (GLONASS) 1 32395U 07065C 24346.23797372 .00000090 00000-0 00000+0 0 9997 2 32395 64.3241 210.6485 0017458 8.0939 101.7920 2.13100004131954 COSMOS 2456 (GLONASS) 1 36111U 09070A 24348.50733707 -.00000036 00000-0 00000+0 0 9990 2 36111 64.7001 89.8065 0002886 296.7777 134.1381 2.13103497116736 COSMOS 2457 (GLONASS) 1 36112U 09070B 24348.05518575 -.00000035 00000-0 00000+0 0 9994 2 36112 64.6848 89.6768 0005235 160.3807 56.1461 2.13100943116728 COSMOS 2458 (GLONASS) 1 36113U 09070C 24347.41507730 -.00000032 00000-0 00000-0 0 9993 2 36113 64.6897 89.7426 0004558 307.2967 46.1851 2.13082176116696 COSMOS 2459 (GLONASS) 1 36400U 10007A 24345.44844152 -.00000034 00000-0 00000-0 0 9999 2 36400 65.7372 333.2441 0026441 341.0186 126.9677 2.13116571115029 COSMOS 2461 (GLONASS) 1 36401U 10007B 24347.31955193 -.00000049 00000-0 00000-0 0 9992 2 36401 65.7314 333.1423 0020480 355.9495 58.8463 2.13106565115061 COSMOS 2460 (GLONASS) 1 36402U 10007C 24347.49371381 -.00000050 00000-0 00000-0 0 9995 2 36402 65.7168 333.0721 0002931 278.6956 221.3202 2.13106074114975 COSMOS 2464 (GLONASS) 1 37139U 10041C 24346.12438090 .00000092 00000-0 00000-0 0 9996 2 37139 63.9148 209.2122 0033233 12.5144 86.4185 2.13099880111101 COSMOS 2471 (GLONASS) 1 37372U 11009A 24348.49858448 -.00000058 00000-0 00000+0 0 9997 2 37372 65.7039 333.0315 0009605 323.1389 213.7882 2.12911339107348 COSMOS 2474 (GLONASS) 1 37829U 11055A 24347.17896503 -.00000027 00000-0 00000-0 0 9990 2 37829 64.9891 91.5512 0010839 239.9542 116.2626 2.13101252102684 COSMOS 2476 (GLONASS) 1 37867U 11064A 24347.12271693 -.00000026 00000-0 00000-0 0 9993 2 37867 64.9693 91.5549 0023493 233.4170 126.6534 2.13101412102009 COSMOS 2477 (GLONASS) 1 37868U 11064B 24347.59073112 -.00000030 00000-0 00000-0 0 9996 2 37868 64.9764 91.6131 0020645 234.0002 304.1282 2.13102807102006 COSMOS 2475 (GLONASS) 1 37869U 11064C 24347.41424050 -.00000029 00000-0 00000-0 0 9997 2 37869 64.9833 91.6357 0025288 249.2183 111.1145 2.13101464102013 COSMOS 2485 (GLONASS) 1 39155U 13019A 24346.12552409 -.00000014 00000-0 00000-0 0 9990 2 39155 65.1246 92.2094 0023973 229.3626 130.4223 2.13104250 90494 COSMOS 2492 (GLONASS) 1 39620U 14012A 24348.42723709 -.00000058 00000-0 00000+0 0 9996 2 39620 65.5968 332.5916 0014689 312.3825 47.4977 2.13103065 83507 COSMOS 2500 (GLONASS) 1 40001U 14032A 24347.66573890 -.00000052 00000-0 00000-0 0 9997 2 40001 65.5339 332.4085 0007989 223.0158 136.9294 2.13105887 81702 COSMOS 2501 (GLONASS) 1 40315U 14075A 24346.04404311 .00000090 00000-0 00000-0 0 9995 2 40315 63.6162 209.5344 0019134 204.4846 155.5107 2.13101325 78065 COSMOS 2514 (GLONASS) 1 41330U 16008A 24348.37324545 -.00000058 00000-0 00000+0 0 9993 2 41330 65.3269 331.8486 0012070 223.0607 136.8488 2.13102473 68888 COSMOS 2516 (GLONASS) 1 41554U 16032A 24346.12947319 .00000090 00000-0 00000-0 0 9995 2 41554 63.8430 210.0628 0015499 210.0503 149.9474 2.13106439 66440 COSMOS 2522 (GLONASS) 1 42939U 17055A 24344.92817666 .00000078 00000-0 00000-0 0 9992 2 42939 64.0776 210.7649 0006102 230.0340 129.9961 2.13101863 56169